| time (UTC) | temp C | wind direction | speed KPH | gust KPH | rain 1hr cm | rain 24hr cm | rain mn cm | humidity % | barometer mb |
| 20260507095140 | 32 | 0.0 | 0.0 | 0.00 | 0.00 | 0.00 | 34 | 811.7 | |
| 20260507094126 | 32 | 0.0 | 0.0 | 0.00 | 0.00 | 0.00 | 34 | 811.6 | |
| 20260507093112 | 32 | 0.0 | 0.0 | 0.00 | 0.00 | 0.00 | 34 | 811.7 | |
| 20260507092057 | 32 | 0.0 | 0.0 | 0.00 | 0.00 | 0.00 | 33 | 811.8 | |
| 20260507091043 | 32 | 0.0 | 0.0 | 0.00 | 0.00 | 0.00 | 34 | 811.8 | |
| 20260507090029 | 32 | 0.0 | 0.0 | 0.00 | 0.00 | 0.00 | 34 | 811.8 | |
| 20260507085015 | 32 | 0.0 | 0.0 | 0.00 | 0.00 | 0.00 | 34 | 812.1 | |
| 20260507084000 | 32 | 0.0 | 0.0 | 0.00 | 0.00 | 0.00 | 34 | 812.2 | |
| 20260507082946 | 32 | 0.0 | 0.0 | 0.00 | 0.00 | 0.00 | 34 | 812.3 | |
| 20260507081932 | 32 | 0.0 | 0.0 | 0.00 | 0.00 | 0.00 | 34 | 812.4 | |
| 20260507080918 | 31 | 0.0 | 0.0 | 0.00 | 0.00 | 0.00 | 34 | 812.5 | |
| 20260507075904 | 32 | 0.0 | 0.0 | 0.00 | 0.00 | 0.00 | 34 | 812.6 | |
| 20260507074849 | 32 | 0.0 | 0.0 | 0.00 | 0.00 | 0.00 | 33 | 812.6 | |
| 20260507073835 | 32 | 0.0 | 0.0 | 0.00 | 0.00 | 0.00 | 33 | 812.6 | |
| 20260507072821 | 32 | 0.0 | 0.0 | 0.00 | 0.00 | 0.00 | 33 | 812.6 | |
| 20260507071807 | 32 | 0.0 | 0.0 | 0.00 | 0.00 | 0.00 | 33 | 812.6 | |
| 20260507070753 | 32 | 0.0 | 0.0 | 0.00 | 0.00 | 0.00 | 33 | 812.7 | |
| 20260507065739 | 31 | 0.0 | 0.0 | 0.00 | 0.00 | 0.00 | 33 | 812.8 | |
| 20260507064724 | 30 | 0.0 | 0.0 | 0.00 | 0.00 | 0.00 | 35 | 812.9 | |
| 20260507063710 | 30 | 0.0 | 0.0 | 0.00 | 0.00 | 0.00 | 36 | 813.1 | |
| 20260507062656 | 30 | 0.0 | 0.0 | 0.00 | 0.00 | 0.00 | 35 | 813.0 | |
| 20260507061642 | 30 | 0.0 | 0.0 | 0.00 | 0.00 | 0.00 | 35 | 813.1 | |
| 20260507060627 | 30 | 0.0 | 0.0 | 0.00 | 0.00 | 0.00 | 35 | 813.2 | |
| 20260507055613 | 30 | 0.0 | 0.0 | 0.00 | 0.00 | 0.00 | 34 | 813.1 | |
| 20260507054559 | 30 | 0.0 | 0.0 | 0.00 | 0.00 | 0.00 | 34 | 813.1 | |
| 20260507053545 | 31 | 0.0 | 0.0 | 0.00 | 0.00 | 0.00 | 34 | 813.0 | |
| 20260507052530 | 32 | 0.0 | 0.0 | 0.00 | 0.00 | 0.00 | 31 | 813.1 | |
| 20260507051517 | 31 | 0.0 | 0.0 | 0.00 | 0.00 | 0.00 | 32 | 813.1 | |
| 20260507050502 | 32 | 0.0 | 0.0 | 0.00 | 0.00 | 0.00 | 31 | 813.0 | |
| 20260507045447 | 31 | 0.0 | 0.0 | 0.00 | 0.00 | 0.00 | 31 | 813.0 | |
| 20260507044433 | 31 | 0.0 | 0.0 | 0.00 | 0.00 | 0.00 | 31 | 813.0 | |
| 20260507043419 | 32 | 0.0 | 0.0 | 0.00 | 0.00 | 0.00 | 30 | 812.9 | |
| 20260507042405 | 31 | 0.0 | 0.0 | 0.00 | 0.00 | 0.00 | 31 | 812.8 | |
| 20260507041351 | 32 | 0.0 | 0.0 | 0.00 | 0.00 | 0.00 | 29 | 812.5 | |
| 20260507040336 | 31 | 0.0 | 0.0 | 0.00 | 0.00 | 0.00 | 29 | 812.4 | |
| 20260507035322 | 32 | 0.0 | 0.0 | 0.00 | 0.00 | 0.00 | 28 | 812.3 | |
| 20260507034308 | 32 | 0.0 | 0.0 | 0.00 | 0.00 | 0.00 | 26 | 812.1 | |
| 20260507033254 | 33 | 0.0 | 0.0 | 0.00 | 0.00 | 0.00 | 24 | 811.9 | |
| 20260507032239 | 33 | 0.0 | 0.0 | 0.00 | 0.00 | 0.00 | 24 | 811.7 | |
| 20260507031225 | 34 | 0.0 | 0.0 | 0.00 | 0.00 | 0.00 | 25 | 811.5 | |
| 20260507030211 | 34 | 0.0 | 0.0 | 0.00 | 0.00 | 0.00 | 25 | 811.2 | |
| 20260507025157 | 34 | 0.0 | 0.0 | 0.00 | 0.00 | 0.00 | 24 | 811.2 | |
| 20260507024143 | 34 | 0.0 | 0.0 | 0.00 | 0.00 | 0.00 | 23 | 811.0 | |
| 20260507023128 | 35 | 0.0 | 0.0 | 0.00 | 0.00 | 0.00 | 24 | 810.9 | |
| 20260507022114 | 33 | 0.0 | 0.0 | 0.00 | 0.00 | 0.00 | 23 | 810.7 | |
| 20260507021100 | 33 | 0.0 | 0.0 | 0.00 | 0.00 | 0.00 | 22 | 810.6 | |
| 20260507020046 | 34 | 0.0 | 0.0 | 0.00 | 0.00 | 0.00 | 22 | 810.4 | |
| 20260507015031 | 34 | 0.0 | 0.0 | 0.00 | 0.00 | 0.00 | 23 | 810.3 | |
| 20260507014017 | 33 | 0.0 | 0.0 | 0.00 | 0.00 | 0.00 | 21 | 810.1 | |
| 20260507013003 | 33 | 0.0 | 0.0 | 0.00 | 0.00 | 0.00 | 21 | 810.0 | |
| 20260507011948 | 34 | 0.0 | 0.0 | 0.00 | 0.00 | 0.00 | 22 | 809.9 | |
| 20260507010934 | 34 | 0.0 | 0.0 | 0.00 | 0.00 | 0.00 | 22 | 809.7 | |
| 20260507005920 | 34 | 0.0 | 0.0 | 0.00 | 0.00 | 0.00 | 22 | 809.7 | |
| 20260507004906 | 33 | 0.0 | 0.0 | 0.00 | 0.00 | 0.00 | 21 | 809.7 | |
| 20260507003850 | 35 | 0.0 | 0.0 | 0.00 | 0.00 | 0.00 | 23 | 809.5 | |
| 20260507002835 | 35 | 0.0 | 0.0 | 0.00 | 0.00 | 0.00 | 21 | 809.4 | |
| 20260507001820 | 35 | 0.0 | 0.0 | 0.00 | 0.00 | 0.00 | 22 | 809.4 | |
| 20260507000806 | 35 | 0.0 | 0.0 | 0.00 | 0.00 | 0.00 | 21 | 809.2 | |
| 20260506235752 | 35 | 0.0 | 0.0 | 0.00 | 0.00 | 0.00 | 20 | 809.1 | |
| 20260506234737 | 35 | 0.0 | 0.0 | 0.00 | 0.00 | 0.00 | 21 | 809.1 | |
| 20260506233723 | 35 | 0.0 | 0.0 | 0.00 | 0.00 | 0.00 | 23 | 809.0 | |
| 20260506232709 | 35 | 0.0 | 0.0 | 0.00 | 0.00 | 0.00 | 23 | 808.8 | |
| 20260506231655 | 35 | 0.0 | 0.0 | 0.00 | 0.00 | 0.00 | 21 | 808.8 | |
| 20260506230640 | 35 | 0.0 | 0.0 | 0.00 | 0.00 | 0.00 | 22 | 808.8 | |
| 20260506225626 | 35 | 0.0 | 0.0 | 0.00 | 0.00 | 0.00 | 21 | 808.8 | |
| 20260506224611 | 35 | 0.0 | 0.0 | 0.00 | 0.00 | 0.00 | 22 | 808.9 | |
| 20260506223557 | 35 | 0.0 | 0.0 | 0.00 | 0.00 | 0.00 | 23 | 808.9 | |
| 20260506222542 | 35 | 0.0 | 0.0 | 0.00 | 0.00 | 0.00 | 24 | 808.9 | |
| 20260506221528 | 34 | 0.0 | 0.0 | 0.00 | 0.00 | 0.00 | 22 | 809.1 | |
| 20260506220514 | 35 | 0.0 | 0.0 | 0.00 | 0.00 | 0.00 | 25 | 809.1 | |
| 20260506215500 | 34 | 0.0 | 0.0 | 0.00 | 0.00 | 0.00 | 23 | 809.1 | |
| 20260506214445 | 35 | 0.0 | 0.0 | 0.00 | 0.00 | 0.00 | 25 | 809.2 | |
| 20260506213431 | 34 | 0.0 | 0.0 | 0.00 | 0.00 | 0.00 | 25 | 809.2 | |
| 20260506212417 | 34 | 0.0 | 0.0 | 0.00 | 0.00 | 0.00 | 25 | 809.3 | |
| 20260506211403 | 35 | 0.0 | 0.0 | 0.00 | 0.00 | 0.00 | 26 | 809.4 | |
| 20260506210349 | 33 | 0.0 | 0.0 | 0.00 | 0.00 | 0.00 | 25 | 809.6 | |
| 20260506205334 | 33 | 0.0 | 0.0 | 0.00 | 0.00 | 0.00 | 26 | 809.6 | |
| 20260506204320 | 33 | 0.0 | 0.0 | 0.00 | 0.00 | 0.00 | 26 | 809.8 | |
| 20260506203306 | 34 | 0.0 | 0.0 | 0.00 | 0.00 | 0.00 | 26 | 809.9 | |
| 20260506202252 | 33 | 0.0 | 0.0 | 0.00 | 0.00 | 0.00 | 27 | 810.0 | |
| 20260506201238 | 33 | 0.0 | 0.0 | 0.00 | 0.00 | 0.00 | 27 | 810.2 | |
| 20260506200223 | 32 | 0.0 | 0.0 | 0.00 | 0.00 | 0.00 | 27 | 810.3 | |
| 20260506195209 | 33 | 0.0 | 0.0 | 0.00 | 0.00 | 0.00 | 26 | 810.6 | |
| 20260506194155 | 32 | 0.0 | 0.0 | 0.00 | 0.00 | 0.00 | 27 | 810.7 | |
| 20260506193141 | 32 | 0.0 | 0.0 | 0.00 | 0.00 | 0.00 | 28 | 810.9 | |
| 20260506192126 | 33 | 0.0 | 0.0 | 0.00 | 0.00 | 0.00 | 28 | 811.1 | |
| 20260506191112 | 32 | 0.0 | 0.0 | 0.00 | 0.00 | 0.00 | 28 | 811.3 | |
| 20260506190058 | 32 | 0.0 | 0.0 | 0.00 | 0.00 | 0.00 | 28 | 811.4 | |
| 20260506185044 | 32 | 0.0 | 0.0 | 0.00 | 0.00 | 0.00 | 28 | 811.6 | |
| 20260506184029 | 32 | 0.0 | 0.0 | 0.00 | 0.00 | 0.00 | 27 | 811.8 | |
| 20260506183015 | 32 | 0.0 | 0.0 | 0.00 | 0.00 | 0.00 | 28 | 811.9 | |
| 20260506182001 | 32 | 0.0 | 0.0 | 0.00 | 0.00 | 0.00 | 29 | 811.9 | |
| 20260506180947 | 32 | 0.0 | 0.0 | 0.00 | 0.00 | 0.00 | 31 | 812.1 | |
| 20260506175933 | 31 | 0.0 | 0.0 | 0.00 | 0.00 | 0.00 | 32 | 812.2 | |
| 20260506174918 | 32 | 0.0 | 0.0 | 0.00 | 0.00 | 0.00 | 31 | 812.3 | |
| 20260506173904 | 32 | 0.0 | 0.0 | 0.00 | 0.00 | 0.00 | 31 | 812.4 | |
| 20260506172850 | 30 | 0.0 | 0.0 | 0.00 | 0.00 | 0.00 | 31 | 812.6 | |
| 20260506171836 | 31 | 0.0 | 0.0 | 0.00 | 0.00 | 0.00 | 31 | 812.6 | |
| 20260506170822 | 31 | 0.0 | 0.0 | 0.00 | 0.00 | 0.00 | 32 | 812.8 | |
| 20260506165808 | 31 | 0.0 | 0.0 | 0.00 | 0.00 | 0.00 | 32 | 812.9 | |
| 20260506164753 | 31 | 0.0 | 0.0 | 0.00 | 0.00 | 0.00 | 33 | 812.9 | |
| 20260506163739 | 30 | 0.0 | 0.0 | 0.00 | 0.00 | 0.00 | 34 | 813.1 | |
| 20260506162725 | 30 | 0.0 | 0.0 | 0.00 | 0.00 | 0.00 | 33 | 813.2 | |
| 20260506161711 | 31 | 0.0 | 0.0 | 0.00 | 0.00 | 0.00 | 34 | 813.2 | |
| 20260506160657 | 31 | 0.0 | 0.0 | 0.00 | 0.00 | 0.00 | 35 | 813.2 | |
| 20260506155642 | 30 | 0.0 | 0.0 | 0.00 | 0.00 | 0.00 | 37 | 813.3 | |
| 20260506154628 | 30 | 0.0 | 0.0 | 0.00 | 0.00 | 0.00 | 36 | 813.3 | |
| 20260506153614 | 30 | 0.0 | 0.0 | 0.00 | 0.00 | 0.00 | 35 | 813.3 | |
| 20260506152600 | 29 | 0.0 | 0.0 | 0.00 | 0.00 | 0.00 | 34 | 813.2 | |
| 20260506151545 | 30 | 0.0 | 0.0 | 0.00 | 0.00 | 0.00 | 34 | 813.2 | |
| 20260506150531 | 30 | 0.0 | 0.0 | 0.00 | 0.00 | 0.00 | 33 | 813.1 | |
| 20260506145517 | 30 | 0.0 | 0.0 | 0.00 | 0.00 | 0.00 | 33 | 813.3 | |
| 20260506144503 | 29 | 0.0 | 0.0 | 0.00 | 0.00 | 0.00 | 33 | 813.1 | |
| 20260506143448 | 29 | 0.0 | 0.0 | 0.00 | 0.00 | 0.00 | 32 | 813.1 | |
| 20260506142434 | 30 | 0.0 | 0.0 | 0.00 | 0.00 | 0.00 | 31 | 813.2 | |
| 20260506141420 | 30 | 0.0 | 0.0 | 0.00 | 0.00 | 0.00 | 31 | 813.2 | |
| 20260506140406 | 31 | 0.0 | 0.0 | 0.00 | 0.00 | 0.00 | 31 | 813.2 | |
| 20260506135352 | 31 | 0.0 | 0.0 | 0.00 | 0.00 | 0.00 | 31 | 813.2 | |
| 20260506134338 | 30 | 0.0 | 0.0 | 0.00 | 0.00 | 0.00 | 33 | 813.2 | |
| 20260506133323 | 28 | 0.0 | 0.0 | 0.00 | 0.00 | 0.00 | 36 | 813.1 | |
| 20260506132309 | 27 | 0.0 | 0.0 | 0.00 | 0.00 | 0.00 | 36 | 813.1 | |
| 20260506131255 | 27 | 0.0 | 0.0 | 0.00 | 0.00 | 0.00 | 37 | 813.0 | |
| 20260506130240 | 28 | 0.0 | 0.0 | 0.00 | 0.00 | 0.00 | 35 | 813.1 | |
| 20260506125226 | 27 | 0.0 | 0.0 | 0.00 | 0.00 | 0.00 | 36 | 813.0 | |
| 20260506124212 | 28 | 0.0 | 0.0 | 0.00 | 0.00 | 0.00 | 36 | 812.9 | |
| 20260506123158 | 28 | 0.0 | 0.0 | 0.00 | 0.00 | 0.00 | 34 | 812.9 | |
| 20260506122144 | 28 | 0.0 | 0.0 | 0.00 | 0.00 | 0.00 | 35 | 812.9 | |
| 20260506121129 | 28 | 0.0 | 0.0 | 0.00 | 0.00 | 0.00 | 35 | 812.8 | |
| 20260506120115 | 28 | 0.0 | 0.0 | 0.00 | 0.00 | 0.00 | 35 | 812.6 | |
| 20260506115101 | 28 | 0.0 | 0.0 | 0.00 | 0.00 | 0.00 | 34 | 812.7 | |
| 20260506114047 | 28 | 0.0 | 0.0 | 0.00 | 0.00 | 0.00 | 35 | 812.6 | |
| 20260506113032 | 28 | 0.0 | 0.0 | 0.00 | 0.00 | 0.00 | 34 | 812.5 | |
| 20260506112019 | 28 | 0.0 | 0.0 | 0.00 | 0.00 | 0.00 | 34 | 812.5 | |
| 20260506111004 | 28 | 0.0 | 0.0 | 0.00 | 0.00 | 0.00 | 34 | 812.4 | |
| 20260506105950 | 29 | 0.0 | 0.0 | 0.00 | 0.00 | 0.00 | 34 | 812.3 | |
| 20260506104936 | 30 | 0.0 | 0.0 | 0.00 | 0.00 | 0.00 | 34 | 812.3 | |
| 20260506103921 | 30 | 0.0 | 0.0 | 0.00 | 0.00 | 0.00 | 33 | 812.2 | |
| 20260506102907 | 31 | 0.0 | 0.0 | 0.00 | 0.00 | 0.00 | 34 | 812.1 | |
| 20260506101853 | 31 | 0.0 | 0.0 | 0.00 | 0.00 | 0.00 | 35 | 812.0 | |
| 20260506100839 | 31 | 0.0 | 0.0 | 0.00 | 0.00 | 0.00 | 33 | 812.1 | |
| 20260506095824 | 31 | 0.0 | 0.0 | 0.00 | 0.00 | 0.00 | 35 | 812.0 |